Regional Weather Roundup
Issued by NWS

Home | Current Version | Previous Version | Graphics & Text | Print | Product List | Glossary On
Versions: 1 2 3 4 5 6 7 8 9 10 11 12 13 14 15 16 17 18 19 20 21 22 23 24 25 26 27 28 29 30 31 32 33 34 35 36 37 38 39 40 41 42 43 44 45 46 47 48 49 50
000
ASUS43 KFSD 241310
RWRSD

WEATHER ROUNDUP FOR SOUTH DAKOTA
NATIONAL WEATHER SERVICE SIOUX FALLS SD
800 AM CDT SUN MAY 24 2015

NOTE: "FAIR" INDICATES FEW OR NO CLOUDS BELOW 12,000 FEET WITH NO
SIGNIFICANT WEATHER AND/OR OBSTRUCTIONS TO VISIBILITY.


SDZ001>005-009-010-012>017-241400-
NORTHWEST AND NORTH CENTRAL SOUTH DAKOTA

CITY           SKY/WX    TMP DP  RH WIND       PRES   REMARKS
BUFFALO          N/A     52  51  97 E15       29.96R
FAITH            N/A     52  50  93 NE13      30.00R
MOBRIDGE       CLOUDY    57  51  80 NE10      29.98F
$$

SDZ012>016-024>037-041>051-057-063-072>074-241400-
SOUTHWEST AND SOUTH CENTRAL SOUTH DAKOTA

CITY           SKY/WX    TMP DP  RH WIND       PRES   REMARKS
RAPID CTY ARPT LGT RAIN  52  52 100 E13       29.95S FOG
PIERRE         CLOUDY    56  53  90 NE6       29.98R
CUSTER         RAIN      46  45  96 NE8       29.97R FOG
ELLSWORTH AFB  LGT RAIN  52  52 100 E12       29.95  FOG
PHILIP         LGT RAIN  55  54  96 E15       29.95S FOG
PINE RIDGE     LGT RAIN  53  51  93 E10       29.92S FOG
SPEARFISH      LGT RAIN  50  50 100 E14       29.99R
WINNER         LGT RAIN  56  54  93 NE9       29.95S VSB<1/4
$$

SDZ004>011-016>023-039-040-241400-
NORTHEAST SOUTH DAKOTA

CITY           SKY/WX    TMP DP  RH WIND       PRES   REMARKS
ABERDEEN       CLOUDY    58  50  75 NE8       30.01R
WATERTOWN      CLOUDY    56  50  80 E6        30.00F
BROOKINGS      CLOUDY    57  55  94 E7        29.99F
SISSETON         N/A     59  50  72 CALM      30.02S
$$

SDZ017-020-022-023-036>040-048>070-241400-
SOUTHEAST SOUTH DAKOTA

CITY           SKY/WX    TMP DP  RH WIND       PRES   REMARKS
SIOUX FALLS    LGT RAIN  60  58  92 E8        29.95F
HURON          CLOUDY    58  56  93 NE6       29.97F FOG
CHAMBERLAIN    CLOUDY    55  55  97 NE5       29.97R FOG
MITCHELL       CLOUDY    59  58  96 NE5       29.95F FOG
YANKTON        CLOUDY    59  55  88 E9        29.92S
$$

ABBREVIATIONS USED IN REMARKS
   TC - TEMPERATURE IN CELSIUS
  WCI - WIND CHILL INDEX
   HX - HEAT INDEX
  VSB - VISIBILITY




USA.gov is the U.S. government's official web portal to all federal, state and local government web resources and services.